Zurück zum Katalog

FENGYUN 1C DEB

AktivPO
NORAD 35088·DEBRIS·🇨🇳 China

Gestartet May 10, 1999 von Taiyuan Satellite Launch Center

Loading…

Nächste Überflüge (nächste 24 Stunden)

TLE

AktuellSource: Space-Track

Epoche: Sep 13, 2026, 09:51 UTC

1 35088U 99025DJQ 26256.41105284  .00005494  00000-0  19656-2 0  9996
2 35088  94.6208 305.2746 0251878  65.2671 297.4504 14.17958046626853

Verfolge FENGYUN 1C DEB in Echtzeit mit AllMySat

Download on the App Store